Tracking 31027 objects as of 19-Jul-2025
HD Live streaming from Space Station
objects crossing your sky now

FREGAT R/B

Track FREGAT R/B now!


NORAD ID: 42720
Int'l Code: 2017-027B
Perigee: 933.3 km
Apogee: 39,200.8 km
Inclination: 62.6 °
Period: 713.0 minutes
Semi major axis: 26438 km
RCS: Unknown
Launch date: May 25, 2017
Source: Commonwealth of Independent States (former USSR) (CIS)
Launch site: PLESETSK MISSILE AND SPACE COMPLEX (PKMTR)

Note: This is a ROCKET BODY
Your satellite tracking list
GEOTAIL
Track 1 satellite(s)




NASA's NSSDC Master Catalog

Two Line Element Set (TLE):
1 42720U 17027B   25199.18107210 -.00001354  00000-0  84807-3 0  9992
2 42720  62.6468 278.3905 7237201 265.1311  16.8623  2.01957063 60087
Source of the keplerian elements: AFSPC